Location: Berville
(49.1893°N, 2.0748°E)
Time: 19:00:48
(UTC+00:00)

FENGYUN 1C DEB - Pass Details

Date: 29 February 2024
Orbit: 768 x 960 km, 99.0° (Epoch: 13 April)

Event Time Altitude Azimuth Distance (km) Brightness Sun altitude
Exits shadow 21:59:17 27° 292° (WNW) 1,761 ? -40.8°
Drops below altitude 10° 22:02:59 10° 327° (NNW) 2,679 ? -41.2°
Sets 22:05:45 0° 338° (NNW) 3,609 ? -41.5°
